Location: Marcé
(47.5801°N, 0.3280°W)
Time: 00:03:03
(UTC+02:00)

deb Explorer IX - Visible Passes

Search period start: 02 October 2022 00:00
Search period end: 12 October 2022 00:00
Orbit: 531 x 1065 km, 38.8° (Epoch: 01 October)

Date Brightness Start Highest point End Pass type
(mag) Time Alt. Az. Time Alt. Az. Time Alt. Az.
03 Oct ? 07:15:09 10° SSE 07:15:30 10° SE 07:15:50 10° SE visible
06 Oct ? 07:25:43 10° SSW 07:29:13 21° SSE 07:33:05 10° ESE visible
07 Oct ? 06:55:32 10° SSW 06:58:45 19° SSE 07:02:16 10° ESE visible
08 Oct ? 06:25:51 12° SSW 06:28:16 17° SSE 06:31:26 10° ESE visible
09 Oct ? 05:57:03 15° SSE 05:57:48 16° SSE 06:00:35 10° ESE visible
09 Oct ? 07:39:17 10° SW 07:43:10 28° S 07:47:32 10° ESE visible
10 Oct ? 05:28:13 14° SE 05:28:13 14° SE 05:29:44 10° ESE visible
10 Oct ? 07:09:00 10° SW 07:12:39 27° S 07:16:47 10° ESE visible
11 Oct ? 06:40:07 18° SSW 06:42:08 26° S 06:46:02 10° ESE visible
